SCP
0 0 0 0 0 0 0 0 0 0 0 0 0 0 0 0 0 0 0 0 0 0 0 0 0 0 0 0 0 1 1 1 1 1 2 2 1 1 1 0 0 0 0 0
0 0 0 0 0 0 0 0 0 0 0 0 0 0 0 0 0 0 0 0 0 0 0 0 0 0 0 0 0 1 1 1 1 2 2 2 2 2 1 1 1 1 0 0
0 0 0 0 0 0 0 0 0 0 0 0 0 0 0 0 0 0 0 0 0 0 0 0 0 0 0 0 0 0 1 1 1 2 2 3 3 3 3 2 2 2 1 1
0 0 0 0 0 0 0 0 0 0 0 0 0 0 0 0 0 0 0 0 0 0 0 0 0 0 0 0 0 0 0 0 1 1 2 3 3 4 4 3 3 2 2 2
0 0 0 0 0 0 0 0 0 0 0 0 0 0 0 0 0 0 0 0 0 0 0 0 0 0 0 0 0 0 0 0 0 0 1 2 3 3 4 3 3 3 3 3
0 0 0 0 0 0 0 0 0 0 0 0 0 0 0 0 0 0 0 0 0 0 0 0 0 0 0 0 0 0 0 0 0 0 0 1 1 2 2 3 3 3 3 3
0 0 0 0 0 0 0 0 0 0 0 0 0 0 0 0 0 0 0 0 0 0 0 0 0 0 0 0 0 0 0 0 0 0 0 0 0 1 1 2 2 2 3 3
0 0 0 0 0 0 0 0 0 0 0 0 0 0 0 0 0 0 0 0 0 0 0 0 0 0 0 0 0 0 0 0 0 0 0 0 0 0 1 1 1 2 2 2
0 0 0 0 0 0 0 0 0 0 0 0 0 0 0 0 0 0 0 0 0 0 0 0 0 0 0 0 0 0 0 0 0 0 0 0 0 0 0 0 1 1 2 2
0 0 0 0 0 0 0 0 0 0 0 0 0 0 0 0 0 0 0 0 0 0 0 0 0 0 0 0 0 0 0 0 0 0 0 0 0 0 0 0 0 1 1 1
0 0 0 0 0 0 0 0 0 0 0 0 0 0 0 0 0 0 0 0 0 0 0 0 0 0 0 0 0 0 0 0 0 0 0 0 0 0 0 0 0 0 0 0
0 0 0 0 0 0 0 0 0 0 0 0 0 0 0 0 0 0 0 0 0 0 0 0 0 0 0 0 0 0 0 0 0 0 0 0 0 0 0 0 0 0 0 0
0 0 0 0 0 0 0 0 0 0 0 0 0 0 0 0 0 0 0 0 0 0 0 0 0 0 0 0 0 0 0 0 0 0 0 0 0 0 0 0 0 0 0 0
0 0 0 0 0 0 0 0 0 0 0 0 0 0 0 0 0 0 0 0 0 0 0 0 0 0 0 0 0 0 0 0 0 0 0 0 0 0 0 0 0 0 0 0
0 0 0 0 0 0 0 0 0 0 0 0 0 0 0 0 0 0 0 0 0 0 0 0 0 0 0 0 0 0 0 0 0 0 0 0 0 0 0 0 0 0 0 0
0 0 0 0 0 0 0 0 0 0 0 0 0 0 0 0 0 0 0 0 0 0 0 0 0 0 0 0 0 0 0 0 0 0 0 0 0 0 0 0 0 0 0 0
0 0 0 0 0 0 0 0 0 0 0 0 0 0 0 0 0 0 0 0 0 0 0 0 0 0 0 0 0 0 0 0 0 0 0 0 0 0 0 0 0 0 0 0
0 0 0 0 0 0 0 0 0 0 0 0 0 0 0 0 0 0 0 0 0 0 0 0 0 0 0 0 0 0 0 0 0 0 0 0 0 0 0 0 0 0 0 0
0 0 0 0 0 0 0 0 0 0 0 0 0 0 0 0 0 0 0 0 0 0 0 0 0 0 0 0 0 0 0 0 0 0 0 0 0 0 0 0 0 0 0 0
0 0 0 0 0 0 0 0 0 0 0 0 0 0 0 0 0 0 0 0 0 0 0 0 0 0 0 0 0 0 0 0 0 0 0 0 0 0 0 0 0 0 0 0
0 0 0 0 0 0 0 0 0 0 0 0 0 0 0 0 0 0 0 0 0 0 0 0 0 0 0 0 0 0 0 0 0 0 0 0 0 0 0 0 0 0 0 0
0 0 0 0 0 0 0 0 0 0 0 0 0 0 0 0 0 0 0 0 0 0 0 0 0 0 0 0 0 0 0 0 0 0 0 0 0 0 0 0 0 0 0 0
0 0 0 0 0 0 0 0 0 0 0 0 0 0 0 0 0 0 0 0 0 0 0 0 0 0 0 0 0 0 0 0 0 0 0 0 0 0 0 0 0 0 0 0
0 0 0 0 0 0 0 0 0 0 0 0 0 0 0 0 0 0 0 0 0 0 0 0 0 0 0 0 0 0 0 0 0 0 0 0 0 0 0 0 0 0 0 0
0 0 0 0 0 0 0 0 0 0 0 0 0 0 0 0 0 0 0 0 0 0 0 0 0 0 0 0 0 0 0 0 0 0 0 0 0 0 0 0 0 0 0 0
0 0 0 0 0 0 0 0 0 0 0 0 0 0 0 0 0 0 0 0 0 0 0 0 0 0 0 0 0 0 0 0 0 0 0 0 0 0 0 0 0 0 0 0
0 0 0 0 0 0 0 0 0 0 0 0 0 0 0 0 0 0 0 0 0 0 0 0 0 0 0 0 0 0 0 0 0 0 0 0 0 0 0 0 0 0 0 0
Wind_Speed
1 1 2 1 0 1 3 4 5 4 4 5 4 3 3 3 3 4 5 6 5 5 5 5 6 5 5 6 5 5 4 4 4 4 4 3 3 3 3 3 3 3 3 3
2 2 2 1 1 0 1 2 2 1 2 3 2 1 2 2 2 4 5 5 5 5 6 6 6 6 6 5 5 4 4 4 4 4 4 3 4 3 3 3 3 3 3 3
1 2 2 3 3 3 2 2 4 4 4 1 1 1 2 2 2 3 5 5 5 5 5 5 5 5 5 5 4 4 4 5 4 4 4 4 4 3 3 3 3 3 3 3
1 2 2 5 1 3 3 1 2 3 3 2 2 2 2 2 2 4 5 5 6 5 6 6 5 5 4 4 3 3 4 5 4 4 4 4 3 3 4 3 3 3 4 3
3 1 4 4 2 3 3 2 3 3 2 1 0 2 3 3 3 4 4 5 5 5 5 5 5 5 4 4 4 4 4 5 5 4 3 4 4 4 3 2 3 3 3 3
4 3 5 5 2 2 4 2 3 4 4 2 2 1 4 4 3 4 4 4 4 4 4 5 5 5 4 4 4 5 5 5 5 4 3 4 4 4 3 2 2 3 3 3
3 3 6 4 1 3 2 6 3 5 5 4 4 5 5 4 3 3 4 4 4 3 4 4 5 4 4 5 5 6 5 4 4 4 3 4 3 3 3 2 2 2 3 4
4 2 6 2 3 4 6 3 3 4 4 4 4 3 3 3 3 4 4 5 4 3 5 5 4 3 4 6 6 5 4 4 4 4 4 3 3 3 3 2 2 3 3 4
6 6 4 2 3 2 3 3 2 3 3 4 3 2 2 2 3 3 4 4 4 3 5 5 4 3 4 6 6 5 4 4 4 4 4 3 3 3 3 2 2 3 2 3
1 3 2 1 0 0 2 2 2 3 3 3 3 2 2 3 3 3 4 4 3 4 5 6 6 5 5 6 5 3 4 4 4 4 4 4 3 2 2 2 2 3 3 3
1 3 2 2 1 0 1 2 2 1 2 3 3 2 3 3 3 3 4 4 3 3 5 6 6 6 6 5 4 4 4 4 4 3 3 3 3 3 3 3 3 3 3 3
5 6 4 4 2 1 3 2 2 2 1 0 2 3 2 3 3 3 4 4 4 5 5 6 6 6 6 5 4 3 4 4 4 3 3 3 3 4 4 4 5 5 5 4
4 3 3 2 1 1 2 2 2 2 1 0 1 1 2 2 3 3 4 4 5 5 6 6 6 7 7 5 4 3 4 4 4 3 3 3 3 3 4 5 4 3 4 4
3 4 3 1 2 1 2 2 3 3 2 1 0 1 1 2 3 4 5 5 5 5 6 5 6 7 6 4 4 4 5 5 4 3 3 3 3 3 3 3 4 4 3 4
2 3 4 3 3 3 3 3 3 2 2 2 1 2 2 3 4 5 6 5 5 5 6 5 6 7 6 4 4 4 4 4 3 3 3 3 2 2 2 2 2 3 3 3
2 3 4 4 3 2 2 2 1 1 2 2 2 3 3 3 4 5 5 4 4 5 6 6 6 7 6 4 4 3 4 6 5 3 3 3 2 2 3 2 3 3 3 3
4 3 2 3 3 2 2 2 3 2 2 3 3 4 4 4 5 6 6 6 5 5 6 5 6 7 5 4 3 3 3 5 5 3 3 3 3 3 3 3 3 3 3 3
4 4 5 5 5 4 3 3 3 3 3 4 4 3 3 4 5 6 7 7 6 6 6 6 6 6 6 5 3 3 3 3 3 3 3 3 3 3 3 3 3 3 3 3
1 2 3 4 4 4 4 4 4 4 4 3 3 3 4 5 5 6 6 5 5 6 7 7 8 6 6 6 5 3 3 4 4 3 3 4 4 4 3 3 3 3 3 2
0 0 2 2 2 3 3 3 3 3 4 3 3 4 5 6 6 5 5 5 5 6 6 7 6 5 6 6 5 3 4 4 4 4 3 3 3 4 4 3 3 3 3 2
0 1 1 2 2 3 3 3 3 4 5 4 4 5 6 7 6 4 4 5 7 6 6 7 5 4 5 5 6 4 4 4 4 4 3 4 4 4 4 3 3 3 3 2
1 1 2 2 2 3 3 3 3 4 4 4 5 6 6 6 6 5 5 5 6 7 6 5 4 6 7 7 4 4 4 4 4 3 3 4 4 4 4 4 3 3 3 2
2 2 3 3 3 3 4 3 4 4 4 5 5 6 6 6 4 4 5 5 4 7 5 4 6 8 9 5 3 4 4 4 4 4 3 4 4 3 4 4 3 3 3 2
2 2 3 3 2 2 4 5 5 4 4 5 5 6 5 4 4 4 5 7 7 7 5 6 7 8 6 3 3 3 3 4 4 4 3 3 3 3 3 3 3 3 3 3
2 2 2 2 2 3 4 4 5 5 4 4 5 5 4 3 4 5 5 5 6 6 5 6 8 7 4 3 3 3 3 4 4 4 3 3 3 3 3 3 3 2 2 2
3 3 4 4 4 4 3 3 3 4 4 4 5 5 4 3 4 4 4 5 6 5 4 4 5 5 4 3 3 4 4 4 4 3 3 3 3 3 3 3 3 2 2 2
3 3 3 3 4 3 3 3 4 5 4 4 5 5 4 4 4 4 4 4 4 4 4 4 4 4 4 4 4 4 4 3 3 3 3 2 2 2 2 2 2 2 1 1
Wind_Direction
219 245 136 150 174 132 147 176 185 219 216 262 270 279 292 305 320 332 331 330 330 326 322 325 328 327 325 324 326 324 324 317 304 306 314 315 316 314 317 312 300 289 279 268
20 32 87 57 327 106 156 155 174 164 270 265 300 340 343 329 327 326 320 320 323 323 321 321 321 322 323 323 324 327 320 311 308 314 317 311 309 315 326 322 317 312 299 279
245 302 27 307 264 192 180 188 167 197 230 262 331 293 280 284 300 304 307 309 311 314 311 309 310 312 315 315 322 326 318 314 313 314 316 312 314 323 317 309 313 312 302 298
120 59 238 250 283 155 140 213 192 191 213 212 228 262 280 269 272 294 303 306 309 312 314 313 313 317 315 319 321 319 322 325 321 318 313 315 319 313 305 303 303 298 299 297
116 161 273 279 226 165 153 256 213 189 206 210 69 23 330 288 268 273 285 295 296 300 304 312 317 317 325 329 328 329 325 318 311 308 309 312 309 301 300 309 309 302 301 301
125 161 236 247 251 158 110 283 234 180 186 178 99 34 283 289 294 297 306 308 307 315 322 324 321 326 334 328 329 319 308 304 306 308 304 300 294 295 300 299 295 306 312 305
149 203 260 260 250 119 156 244 211 181 185 175 188 213 249 288 294 295 304 309 318 327 325 313 317 332 332 326 312 296 298 305 312 309 300 292 295 297 300 301 309 315 310 307
144 185 255 253 129 169 210 208 166 179 187 188 210 241 266 280 291 309 319 322 328 331 320 318 326 335 326 313 303 308 311 314 313 310 306 310 305 304 304 301 303 306 310 314
181 209 247 250 207 211 164 166 188 182 192 178 191 235 263 278 293 307 310 315 318 317 316 320 325 324 311 304 312 320 322 315 309 311 311 306 301 301 305 302 289 292 301 307
196 272 281 302 350 75 144 169 181 172 173 170 193 227 255 276 293 306 310 310 312 319 318 314 315 314 297 301 311 315 311 306 308 315 317 317 310 292 288 288 282 283 286 290
235 271 342 346 330 152 93 97 102 111 156 181 189 233 241 259 279 287 297 303 308 307 299 299 307 309 306 308 313 310 305 304 308 307 306 309 305 288 277 265 250 248 262 261
213 218 184 226 241 151 115 119 132 110 61 280 202 228 246 264 274 281 291 299 303 303 301 301 305 305 306 309 308 303 304 305 303 299 296 294 300 313 306 284 291 265 248 246
200 178 167 184 154 115 124 118 97 103 132 302 311 247 248 271 284 289 292 296 291 292 294 300 304 304 306 311 311 304 295 296 300 299 296 297 297 300 312 323 324 304 284 273
141 116 108 145 162 129 107 105 89 75 58 64 336 321 307 297 303 304 294 289 290 296 299 302 307 303 303 309 307 303 299 293 293 295 292 288 287 287 287 299 318 324 317 301
112 126 151 143 113 95 94 90 78 46 5 347 337 327 316 309 304 300 299 301 301 305 304 307 308 304 306 303 298 297 299 300 301 300 293 284 286 289 287 286 288 298 313 319
96 84 108 117 130 127 110 110 131 263 299 310 311 304 298 295 297 301 310 319 320 311 308 307 302 302 310 305 302 302 298 299 303 301 303 301 297 296 296 295 294 298 304 305
111 119 136 152 170 178 188 199 205 224 254 274 276 285 298 311 319 319 318 316 303 291 293 294 296 306 314 310 303 301 302 308 310 307 303 300 296 293 295 299 295 293 292 296
168 179 177 178 183 191 207 218 225 234 243 256 275 292 299 300 299 301 306 312 314 313 307 296 297 307 311 310 304 297 297 300 304 298 296 299 297 291 286 288 289 290 300 309
145 173 182 187 193 196 208 223 237 245 256 263 270 275 276 277 280 288 300 309 311 308 304 306 309 309 305 302 304 290 289 294 295 293 291 301 301 296 291 290 290 289 292 299
76 190 198 205 211 213 232 241 245 258 262 255 264 280 286 285 285 291 294 285 272 268 285 303 309 305 303 304 307 295 289 289 289 293 298 297 295 296 296 293 290 294 295 292
266 284 254 237 250 252 245 241 245 258 265 258 253 262 269 277 282 284 284 288 286 284 293 296 297 297 302 304 301 290 286 288 288 287 289 291 293 296 295 294 293 292 291 288
296 285 279 263 255 268 267 254 248 258 270 273 271 272 275 280 284 284 268 259 275 293 298 293 293 298 306 306 293 289 288 292 291 288 290 289 290 295 298 297 292 289 284 280
287 285 284 277 262 272 291 284 264 258 263 269 275 280 279 276 271 270 287 284 287 296 298 291 294 301 308 306 290 286 289 293 293 286 284 286 288 287 287 289 285 283 282 279
288 287 286 289 297 309 296 292 290 279 271 272 273 271 270 279 283 260 255 283 293 296 293 292 298 304 307 299 293 292 292 291 290 285 281 284 289 289 286 287 287 287 284 284
278 282 291 297 289 273 269 283 299 300 296 290 287 283 271 247 256 280 287 289 295 301 301 302 306 309 308 303 299 296 294 291 291 293 287 289 289 290 290 286 279 278 280 284
243 242 251 251 248 254 262 269 279 285 287 290 295 294 292 283 271 277 286 291 297 303 304 306 311 312 307 302 301 299 298 299 298 295 292 294 293 294 296 293 285 281 279 282
259 255 259 276 278 263 257 257 265 274 273 272 283 289 291 295 296 296 297 297 301 306 307 307 309 310 309 306 304 300 295 295 296 297 298 296 294 293 293 289 284 283 283 293